ARCTICSAT 1 (RS74S)

Last updated on Sun Dec 07 2025 00:03:12 GMT+0000 (Coordinated Universal Time)

1 61762U 24199AD 25340.61562909 .00078050 00000+0 13190-2 0 9994 2 61762 97.3227 211.4171 0005445 237.7450 122.3275 15.51322973107904
UTC large
Height (km)
Speed (km/s)
/
Latitude / Longitude
Inclination (degrees)
Orbital Period (minutes)
Azimuth
Elevation
Range (km)
Doppler Factor

Next 0 passes for location: London (51.5072 / 0.1276)

Sorry there are no passes over London.